Hourly Weather Roundup
Issued by NWS Central Illinois

Home | Current Version | Previous Version | Text Only | Print | Product List | Glossary On
Versions: 1 2 3 4 5 6 7 8 9 10 11 12 13 14 15 16 17 18 19 20 21 22 23 24 25 26 27 28 29 30 31 32 33 34 35 36 37 38 39 40 41 42 43 44 45 46 47 48 49 50
000
NZUS43 KILX 190810
HWRILX

AREA WEATHER ROUNDUP
NATIONAL WEATHER SERVICE, LINCOLN IL
300 AM CDT FRI SEP 19 2014


CITY           SKY/WX    TMP DP  RH WIND       PRES   REMARKS
BLOOMINGTON    CLEAR     48  46  93 E7        30.13F
CHAMPAIGN      CLEAR     50  47  89 E6        30.13F
DECATUR        CLEAR     50  46  86 E3        30.12F
FLORA          CLEAR     53  51  92 CALM      30.10F
GALESBURG      CLEAR     52  49  89 E5        30.10F
JACKSONVILLE   CLEAR     51  49  91 SE3       30.10F
LACON          CLEAR     53  51  94 E9        30.11F FOG
LAWRENCEVILLE  CLEAR     53  50  89 NE6       30.10F
LITCHFIELD     CLEAR     54  51  92 E5        30.09F
$$


CITY           SKY/WX    TMP DP  RH WIND       PRES   REMARKS
LINCOLN        CLEAR     49  47  92 CALM      30.10F
MACOMB         CLEAR     47  46  96 CALM      30.12S
MATTOON        CLEAR     52  48  86 CALM      30.11F
MT CARMEL AP   CLEAR     52  52 100 CALM      30.10S
OLNEY-NOBLE AP CLEAR     54  50  87 CALM      30.10F
PARIS          CLEAR     47  47  99 CALM      30.13F
PEORIA         CLEAR     55  51  86 E6        30.11F
PONTIAC          N/A     52  52 100 E3        30.13F FOG
RANTOUL        CLEAR     54  48  80 CALM      30.14F
ROBINSON       CLEAR     48  48  99 CALM      30.13S FOG
SPRINGFIELD    CLEAR     51  47  86 NE6       30.11S
TAYLORVILLE    CLEAR     52  48  87 E3        30.11S
$$

...REGIONAL REPORTS...


CITY           SKY/WX    TMP DP  RH WIND       PRES   REMARKS
CHICAGO O`HARE CLEAR     55  52  89 E5        30.14F
KANKAKEE       CLEAR     51  50  97 E5        30.15F
MOLINE         CLEAR     52  49  89 E7        30.11S FOG
MOUNT VERNON   CLEAR     54  48  82 N3        30.09F
PITTSFIELD     CLEAR     52  50  93 CALM      30.10S FOG
QUINCY         CLEAR     55  50  83 SE6       30.08F
ROCKFORD       FOG       55  54  96 SE9       30.15F VSB 3/4
$$


CITY           SKY/WX    TMP DP  RH WIND       PRES   REMARKS
BURLINGTON     CLEAR     54  48  80 SE6       30.09S
CEDAR RAPIDS   CLEAR     54  50  86 SE6       30.08S
DES MOINES     PTCLDY    58  54  86 S8        30.03F
KIRKSVILLE     CLEAR     53  50  89 SE5       30.07S
OTTUMWA        CLEAR     54  50  86 SE5       30.06S
ST LOUIS       CLEAR     59  53  80 SE5       30.08F
$$


CITY           SKY/WX    TMP DP  RH WIND       PRES   REMARKS
TERRE HAUTE    CLEAR     49  46  90 CALM      30.13S
EVANSVILLE     CLEAR     57  50  77 NE5       30.09S
INDIANAPOLIS   CLEAR     55  47  74 E7        30.14S
LAFAYETTE        N/A     53  48  83 E3        30.14F
MADISON        CLOUDY    52  51  97 SE6       30.15R FOG
MILWAUKEE      PTCLDY    52  50  93 CALM      30.15F
$$




USA.gov is the U.S. government's official web portal to all federal, state and local government web resources and services.